Location: Newark
(34.1333°N, 7.9667°W)
Time: 17:03:12
(UTC+00:00)

N. Korean satellite - Visible Passes

Search period start: 26 September 2021 00:00
Search period end: 06 October 2021 00:00
Orbit: 449 x 498 km, 97.3° (Epoch: 25 September)

Date Brightness Start Highest point End Pass type
(mag) Time Alt. Az. Time Alt. Az. Time Alt. Az.
26 Sep 10.1 04:43:59 10° ENE 04:44:59 11° E 04:46:00 10° ESE visible
27 Sep 6.5 05:46:58 10° N 05:50:34 87° W 05:54:10 10° SSW visible
28 Sep 8.3 05:19:26 10° NNE 05:22:45 35° E 05:26:05 10° SSE visible
29 Sep 9.8 04:52:41 10° ENE 04:54:49 15° E 04:56:59 10° SE visible
30 Sep 6.6 05:56:44 10° N 06:00:17 61° WNW 06:03:52 10° SSW visible
01 Oct 7.6 05:28:57 10° NNE 05:32:28 49° E 05:36:00 10° S visible
02 Oct 9.4 05:01:47 10° NE 05:04:33 20° E 05:07:18 10° SE visible
04 Oct 6.9 05:38:27 10° NNE 05:42:04 71° E 05:45:42 10° S visible
05 Oct 8.9 05:11:00 10° NE 05:14:09 27° E 05:17:18 10° SSE visible
